Tracking 18673 objects as of 27-June-2017
HD Live streaming from Space Station
objects crossing your sky now

VIASAT 2

Track VIASAT 2 now!
VIASAT 2 is classified as:


NORAD ID: 42740
Int'l Code: 2017-029A
Perigee: 16,878.3 km
Apogee: 54,461.7 km
Inclination: 0.4 °
Period: 1,429.8 minutes
Semi major axis: 42040 km
RCS: Unknown
Launch date: June 1, 2017
Source: United States (US)
Launch site: FRENCH GUIANA (FRGUI)

VIASAT 2 is a commercial communications satellite which will be the world's highest capacity communications satellite after it becomes commercially available in early 2018.
Your satellite tracking list
Your tracking list is empty





NASA's NSSDC Master Catalog

Two Line Element Set (TLE):
1 42740U 17029A   17173.13014122 -.00000267 +00000-0 +00000-0 0  9995
2 42740 000.3824 277.1063 4469850 340.4988 328.6268 01.00714855000291
Source of the keplerian elements: AFSPC